Regional Weather Roundup
Issued by NWS

Home | Current Version | Previous Version | Text Only | Print | Product List | Glossary On
Versions: 1 2 3 4 5 6 7 8 9 10 11 12 13 14 15 16 17 18 19 20 21 22 23 24 25 26 27 28 29 30 31 32 33 34 35 36 37 38 39 40 41 42 43 44 45 46 47 48 49 50
000
ASUS43 KMPX 230610
RWRMN
WEATHER ROUNDUP FOR MINNESOTA
NATIONAL WEATHER SERVICE TWIN CITIES/CHANHASSEN MN
1200 AM CST SUN NOV 23 2014


NOTE: "FAIR" INDICATES FEW OR NO CLOUDS BELOW 12,000 FEET WITH NO
SIGNIFICANT WEATHER AND/OR OBSTRUCTIONS TO VISIBILITY. N/A MEANS
CURRENT SKY AND/OR WEATHER CONDITIONS ARE NOT AVAILABLE.

MNZ060>063-068>070-230700-
   Twin Cities Metro

CITY           SKY/WX    TMP DP  RH WIND       PRES   REMARKS
TWIN CITIES    CLOUDY    39  38  96 SE5       29.51F FOG
6HR MIN TEMP:  35; 6HR MAX TEMP:  39;

ST PAUL        CLOUDY    37  37 100 S7        29.53F FOG
CRYSTAL        CLOUDY    40  38  93 SE9       29.48F FOG
LAKEVILLE      MOCLDY    45  43  93 S8        29.50F FOG
EDEN PRAIRIE   CLOUDY    45  43  93 S8        29.48F FOG
6HR MIN TEMP:  35; 6HR MAX TEMP:  45;

SOUTH ST PAUL    N/A     39  38  97 S5        29.51F FOG
LAKE ELMO      CLOUDY    41  41 100 S9        29.52F FOG
$$
MNZ001>005-007-008-013>017-022>024-027-028-230700-
   Northwest Minnesota

CITY           SKY/WX    TMP DP  RH WIND       PRES   REMARKS
BEMIDJI        CLOUDY    32  31  96 S10G16    29.40F FOG     WCI  24
HALLOCK        CLOUDY    34  32  93 S14       29.36R FOG     WCI  24
ROSEAU         MOCLDY    36  30  80 S6        29.37R
WARROAD        CLOUDY    36  30  80 SE7       29.38S
THIEF RVR FALL CLOUDY    34  30  86 SE12      29.36F WCI  25
CROOKSTON      CLOUDY    34  32  93 S12       29.38S WCI  25
FOSSTON        CLOUDY    30  28  93 S9        29.39S FOG     WCI  22
DETROIT LAKES  CLOUDY    34  34 100 S13       29.39S FOG     WCI  25
MOORHEAD       CLOUDY    36  36 100 S14       29.38F FOG
PARK RAPIDS    FOG       32  32 100 SE10      29.40F VSB 1   WCI  24
MAHNOMEN       CLOUDY    33  32  96 S9        29.38S WCI  25
$$
MNZ006-009>011-018-025>026-230700-
   North Central Minnesota

CITY           SKY/WX    TMP DP  RH WIND       PRES   REMARKS
BAUDETTE       CLOUDY    35  29  78 SE8       29.39R WCI  29
FLAG ISLAND    CLOUDY    34  30  86 SE6       29.38S WCI  29
INTL FALLS     CLOUDY    32  29  88 SE10      29.44S WCI  24
6HR MIN TEMP:  32; 6HR MAX TEMP:  34;

WASKISH        CLOUDY    34  30  86 CALM      29.41S
BIG FORK       CLOUDY    34  30  86 S13       29.45F FOG     WCI  25
LONGVILLE      CLOUDY    32  30  93 SE6       29.43F FOG     WCI  26
GRAND RAPIDS   CLOUDY    32  30  93 SE10      29.46F VSB 1   WCI  24
CRANE LAKE     CLOUDY    30  28  93 SE3       29.51R FOG
ORR            CLOUDY    32  28  86 SE9       29.45R FOG     WCI  24
COOK           CLOUDY    34  30  86 SE6       29.49R FOG     WCI  29
WALKER         CLOUDY    32  31  98 SE6       29.41F FOG     WCI  26
$$
MNZ012-019>021-037-230700-
   Northeast Minnesota

CITY           SKY/WX    TMP DP  RH WIND       PRES   REMARKS
DULUTH         FOG       33  32  96 SE10      29.52S VSB 1/4 WCI  25
6HR MIN TEMP:  33; 6HR MAX TEMP:  34;

ELY            CLOUDY    34  30  86 S10       29.51R WCI  26
HIBBING        CLOUDY    33  30  88 SE12      29.49S FOG     WCI  24
EVELETH        CLOUDY    32  32 100 SE10G17   29.51F FOG     WCI  24
DULUTH HARBOR  CLOUDY    37  34  87 CALM      29.56F
TWO HARBORS    CLOUDY    37  32  81 SE6       29.54F HAZE
SILVER BAY     CLOUDY    36  32  87 E5        29.56F FOG
GRAND MARAIS     N/A     38  34  85 SE5       29.61F
G MARAIS ARPRT CLOUDY    30  28  93 SE3       29.57F VSB 1/4
$$
MNZ029>031-032-039>041-046>048-054>057-064-230700-
   West Central Minnesota

CITY           SKY/WX    TMP DP  RH WIND       PRES   REMARKS
FERGUS FALLS   CLOUDY    34  34 100 SE9       29.42S FOG     WCI  26
WHEATON        CLOUDY    30  30 100 SE5       29.40S FOG     WCI  25
MORRIS         CLOUDY    34  34 100 SE9       29.38R FOG     WCI  26
ALEXANDRIA     CLOUDY    34  34 100 S9        29.40S FOG     WCI  27
ELBOW LAKE       N/A     33  33  99 SE9       29.39S FOG     WCI  26
WADENA         FOG       32  32 100 SE7       29.41R VSB 1/2 WCI  26
GLENWOOD       CLOUDY    36  34  93 SE8       29.40F FOG
APPLETON       CLOUDY    37  36  93 S7        29.39S
BENSON         CLOUDY    36  34  93 S8        29.40S FOG
ORTONVILLE     CLOUDY    34  30  86 S5        29.38R WCI  30
MADISON        CLOUDY    39  36  87 S8        29.38S
WILLMAR        FAIR      36  36 100 S6        29.43F FOG
$$
MNZ033>034-036-042>043-049>051-058-059-230700-
   Central Minnesota

CITY           SKY/WX    TMP DP  RH WIND       PRES   REMARKS
ST CLOUD       FOG       37  35  92 SE9       29.44F VSB 1/4
6HR MIN TEMP:  34; 6HR MAX TEMP:  37;

SAUK CENTRE    CLOUDY    34  34 100 SE9       29.41F FOG     WCI  27
PAYNESVILLE    CLOUDY    34  34 100 SE10      29.43F FOG     WCI  26
AITKIN         HAZE      36  30  80 SE5       29.44F VSB 1/2
PINE RIVER     FOG       32  32 100 SE9       29.47F VSB 3/4 WCI  24
BRAINERD       FOG       33  33 100 SE6       29.44F VSB 3/4 WCI  28
STAPLES        FOG       32  32 100 SE6       29.41S VSB 3/4 WCI  26
LONG PRAIRIE   FOG       32  32 100 SE9       29.41F VSB 1/4 WCI  24
LITTLE FALLS   FOG       34  32  93 SE7       29.43F VSB 1/4 WCI  28
LITCHFIELD     FOG       39  39 100 CALM      29.44F VSB 3/4
BUFFALO        CLOUDY    40  38  94 S5        29.47F FOG
MAPLE LAKE     FOG       39  38  99 SE5       29.47F VSB 1/4
$$
MNZ037-044-045-052-053-230700-
   East Central Minnesota

CITY           SKY/WX    TMP DP  RH WIND       PRES   REMARKS
PRINCETON      FOG       39  37  93 SE7       29.47F VSB 1/2
MORA           FOG       32  32 100 SE5       29.50F VSB 1   WCI  27
CAMBRIDGE      HAZE      39  34  81 SE6       29.47F VSB 3/4
RUSH CITY      CLOUDY    37  36  96 SE6       29.50F FOG
MOOSE LAKE     CLOUDY    34  34 100 CALM      29.48F FOG
HINCKLEY       FOG       36  36 100 SE6       29.49F VSB 3/4
CLOQUET        FOG       34  32  93 SE5       29.50F VSB 1/4 WCI  30
MCGREGOR       CLOUDY    34  34 100 SE5       29.47F VSB 1/2 WCI  30
$$
MNZ071>073-080-081-089-090-097-098-230700-
   Southwest Minnesota

CITY           SKY/WX    TMP DP  RH WIND       PRES   REMARKS
MONTEVIDEO     CLOUDY    37  37 100 S3        29.42S
GRANITE FALLS  CLOUDY    38  36  91 S10       29.44R
CANBY          CLOUDY    42  35  76 SW20G26   29.40R
MARSHALL       CLOUDY    43  36  75 SW18G25   29.42R
REDWOOD FALLS  CLOUDY    45  42  89 SW20      29.43F FOG
OLIVIA         CLOUDY    39  37  93 S10       29.42F FOG
PIPESTONE      CLOUDY    41  37  87 SW13      29.45R
WINDOM         CLOUDY    48  46  93 S17G23    29.46F
WORTHINGTON    CLOUDY    48  46  93 SW18G26   29.48F
JACKSON        CLOUDY    48  45  87 SW15G22   29.49F
TRACY          CLOUDY    44  41  89 SW22      29.44R
SLAYTON        FOG       43  43 100 SW22      29.46R VSB 1
$$
MNZ065>067-074>077-082>085-091>093-230700-
   South Central Minnesota

CITY           SKY/WX    TMP DP  RH WIND       PRES   REMARKS
MANKATO        CLOUDY    48  45  87 S13       29.50S
NEW ULM        CLOUDY    48  46  93 SW12      29.47S
ST JAMES       CLOUDY    50  46  87 S16       29.48F
FAIRMONT       CLOUDY    50  45  81 S14       29.50F
GLENCOE        CLOUDY    47  46  97 S12G18    29.46F
FARIBAULT      CLOUDY    45  45 100 S7        29.52F FOG
OWATONNA       CLOUDY    46  45  93 S12       29.53F FOG
WASECA         CLOUDY    48  45  87 S15       29.53F FOG
ALBERT LEA     CLOUDY    50  50 100 S10G16    29.54S FOG
$$
MNZ078>079-086>088-094>096-230700-
   Southeast Minnesota

CITY           SKY/WX    TMP DP  RH WIND       PRES   REMARKS
ROCHESTER      CLOUDY    49  48  97 S20       29.57S FOG
6HR MIN TEMP:  37; 6HR MAX TEMP:  49; 6HR PCP:  0.01;

RED WING         N/A     43  41  93 E3        29.55F FOG
STANTON        CLOUDY    47  45  91 S9G17     29.51F FOG
DODGE CENTER   FOG       46  46 100 S16G22    29.54F VSB 1/4
WINONA         CLOUDY    50  50 100 S6        29.58F
AUSTIN         CLOUDY    48  48 100 S16       29.56S FOG
PRESTON        CLOUDY    49  48  98 S21G28    29.59F FOG
$$
ABBREVIATIONS USED IN REMARKS
   TC - TEMPERATURES IN CELSIUS
  WCI - WIND CHILL INDEX
   HX - HEAT INDEX
  VSB - VISIBILITY
$$


USA.gov is the U.S. government's official web portal to all federal, state and local government web resources and services.